This is the latest recevied weather packets stored in our database for station/object AD8BV. If no packets are shown the sender has not sent any weather packets the latest 10 day(s).
| Time | Temp. | Humidity | Pressure | Rain* | Wind** | Luminosity | Snow |
|---|---|---|---|---|---|---|---|
| 1777759509 | 10° C | 46% | 1017.7 hPa | 0 mm | - | 121 W/m² | - |
| 1777759206 | 10° C | 48% | 1017.7 hPa | 0 mm | - | 104 W/m² | - |
| 1777758903 | 9.44° C | 51% | 1017.7 hPa | 0 mm | - | 206 W/m² | - |
| 1777758600 | 8.89° C | 48% | 1017.8 hPa | 0 mm | - | 127 W/m² | - |
| 1777758297 | 8.89° C | 50% | 1017.7 hPa | 0 mm | - | 118 W/m² | - |
| 1777757994 | 8.89° C | 51% | 1017.9 hPa | 0 mm | - | 89 W/m² | - |
| 1777757690 | 8.89° C | 50% | 1017.7 hPa | 0 mm | - | 94 W/m² | - |
| 1777757389 | 8.89° C | 51% | 1017.6 hPa | 0 mm | - | 104 W/m² | - |
| 1777757088 | 9.44° C | 49% | 1017.8 hPa | 0 mm | - | 129 W/m² | - |
| 1777756784 | 9.44° C | 51% | 1017.8 hPa | 0 mm | - | 137 W/m² | - |
| 1777756480 | 9.44° C | 48% | 1017.9 hPa | 0 mm | - | 131 W/m² | - |
| 1777756178 | 10° C | 51% | 1017.8 hPa | 0 mm | - | 154 W/m² | - |
| 1777755874 | 9.44° C | 50% | 1017.9 hPa | 0 mm | - | 509 W/m² | - |
| 1777755572 | 9.44° C | 49% | 1017.8 hPa | 0 mm | - | 205 W/m² | - |
| 1777755268 | 10° C | 47% | 1017.8 hPa | 0 mm | - | 161 W/m² | - |
| 1777754965 | 10° C | 47% | 1017.9 hPa | 0 mm | - | 543 W/m² | - |
| 1777754662 | 10.56° C | 46% | 1018.1 hPa | 0 mm | - | 533 W/m² | - |
| 1777754360 | 9.44° C | 51% | 1018 hPa | 0 mm | - | 554 W/m² | - |
| 1777754057 | 8.33° C | 50% | 1018.2 hPa | 0 mm | - | 152 W/m² | - |
| 1777753752 | 8.89° C | 55% | 1018.2 hPa | 0 mm | - | 138 W/m² | - |
| 1777753450 | 8.89° C | 52% | 1018.2 hPa | 0 mm | - | 96 W/m² | - |
| 1777753148 | 8.89° C | 51% | 1018.2 hPa | 0 mm | - | 93 W/m² | - |
| 1777752844 | 8.89° C | 48% | 1018.2 hPa | 0 mm | - | 122 W/m² | - |
| 1777752541 | 8.89° C | 49% | 1018.2 hPa | 0 mm | - | 123 W/m² | - |
| 1777752236 | 9.44° C | 46% | 1018.4 hPa | 0 mm | - | 121 W/m² | - |
* Rain latest hour (hover to see other rain measurements)
** Current wind speed in m/s (hover to see current wind gust speed)